Regional Weather Roundup
Issued by NWS

Home | Current Version | Previous Version | Graphics & Text | Print | Product List | Glossary On
Versions: 1 2 3 4 5 6 7 8 9 10 11 12 13 14 15 16 17 18 19 20 21 22 23 24 25 26 27 28 29 30 31 32 33 34 35 36 37 38 39 40 41 42 43 44 45 46 47 48 49 50
000
ASUS44 KMEG 230110
RWRTN
TENNESSEE HOURLY STATE WEATHER ROUNDUP
NATIONAL WEATHER SERVICE MEMPHIS TN
800 PM CDT FRI SEP 22 2017

TNZ002-004-019-021-049-052-054-088>092-230200-
WEST TENNESSEE

CITY           SKY/WX    TMP DP  RH WIND       PRES   REMARKS
MEMPHIS INTL   PTCLDY    85  67  54 NE6       29.97R
NWS MEMPHIS      N/A     78 N/A N/A MISG        N/A
JACKSON        CLEAR     75  72  90 CALM      29.99R
DYERSBURG      CLEAR     76  70  82 CALM      29.99R
SOMERVILLE     CLEAR     75  72  88 CALM      29.97S
COVINGTON      CLEAR     77  73  88 CALM      29.98R
BOLIVAR        CLEAR     75  72  88 CALM      29.98R
PARIS          CLEAR     72  68  88 CALM      29.99S
HUNTINGDON     CLEAR     75  70  83 CALM      29.99R
LEXINGTON      CLEAR     73  72  94 CALM      29.99R
SAVANNAH       PTCLDY    73  73 100 CALM      29.98R
$$

TNZ008-025-027-028-033-062-065-066-230200-
NORTH MIDDLE TENNESSEE

CITY           SKY/WX    TMP DP  RH WIND       PRES   REMARKS
NASHVILLE      CLEAR     80  66  62 N6        30.01R
PORTLAND       CLEAR     75  70  83 CALM      30.02R
CLARKSVILLE    CLEAR     77  67  71 NE3       30.01R
SMYRNA         CLEAR     82  70  65 NE5       30.02S
COOKEVILLE     CLOUDY    75  72  88 CALM      30.03R
GALLATIN       CLEAR     77  70  78 N5        30.04R
CROSSVILLE     CLEAR     71  66  84 CALM      30.09R
$$

TNZ061-075-076-078-094-096-097-230200-
SOUTH MIDDLE TENNESSEE

CITY           SKY/WX    TMP DP  RH WIND       PRES   REMARKS
FAYETTEVILLE   CLEAR     77  68  73 NE5       30.02R
TULLAHOMA        N/A     73  66  78 CALM      30.04R
WINCHESTER     CLEAR     75  70  83 CALM      30.03R
MCMINNVILLE    CLEAR     75  73  94 CALM      30.04R
COLUMBIA       CLEAR     77 N/A N/A CALM      29.99R
SHELBYVILLE    CLEAR     73  70  88 E5        30.02R
$$

TNZ017-018-042-046-047-230200-
NORTHEAST TENNESSEE

CITY           SKY/WX    TMP DP  RH WIND       PRES   REMARKS
TRI CITIES     MOCLDY    74  63  68 CALM      30.07R
ELIZABETHTON   CLEAR     70  64  83 CALM      30.08R
$$

TNZ012-013-036-069-073-074-230200-
CENTRAL EAST TENNESSEE

CITY           SKY/WX    TMP DP  RH WIND       PRES   REMARKS
KNOXVILLE      PTCLDY    79  65  62 N3        30.02R
OAK RIDGE      CLEAR     74  68  81 CALM      30.05R
DOWNTOWN KNOXV   N/A     72  70  94 CALM      30.02R
GATLINBURG     PTCLDY    73  61  64 CALM      30.03R
MORRISTOWN     CLOUDY    77  63  61 N3        30.04R
JACKSBORO      CLEAR     72  68  88 CALM      30.09R
$$

TNZ083-085-099-230200-
SOUTHEAST TENNESSEE

CITY           SKY/WX    TMP DP  RH WIND       PRES   REMARKS
CHATTANOOGA    PTCLDY    78  70  76 CALM      30.01R
DAYTON         CLEAR     73  72  94 CALM      30.01R
$$

SKY/WX REPORTED AS FAIR MEANS FEW OR NO CLOUDS BELOW
12 THOUSAND FEET.





USA.gov is the U.S. government's official web portal to all federal, state and local government web resources and services.